Regional Weather Roundup
Issued by NWS

Home | Current Version | Previous Version | Text Only | Print | Product List | Glossary Off
Versions: 1 2 3 4 5 6 7 8 9 10 11 12 13 14 15 16 17 18 19 20 21 22 23 24 25 26 27 28 29 30 31 32 33 34 35 36 37 38 39 40 41 42 43 44 45 46 47 48 49 50

000
ASUS43 KLMK 291702
RWRKY
KENTUCKY REGIONAL WEATHER ROUNDUP
NATIONAL WEATHER SERVICE LOUISVILLE KY
100 PM EDT WED MAR 29 2017

NOTE "FAIR" INDICATES FEW OR NO CLOUDS BELOW 12,000 FEET
WITH NO SIGNIFICANT WEATHER AND/OR OBSTRUCTIONS TO VISIBILITY.

KYZ001>023-026-027-061>063-070>075-291800-
WESTERN AND SOUTH CENTRAL KENTUCKY

CITY           SKY/WX    TMP DP  RH WIND       PRES   REMARKS
PADUCAH        CLOUDY    66  54  65 E12       30.01F
HENDERSON      MOSUNNY   64  52  63 E12G18    30.05F
OWENSBORO      MOSUNNY  N/A N/A N/A SE9       30.11F
HOPKINSVILLE   MOSUNNY   67  56  69 E9        30.05F
BOWLING GREEN  MOSUNNY   69  55  60 VRB3      30.09R
GLASGOW        NOT AVBL
$$

KYZ024-025-028>034-038-045-046-053-291800-
NORTH CENTRAL KENTUCKY

CITY           SKY/WX    TMP DP  RH WIND       PRES   REMARKS
LOUISVILLE/SDF CLOUDY    58  46  64 NE9       30.15S
LOUISVILLE/LOU CLOUDY    58  47  66 NE12      30.15F
FORT KNOX      CLOUDY    60  50  70 E6        30.13R
$$

KYZ035>037-039>044-047>052-055>060-089>105-291800-
NORTHEAST KENTUCKY

CITY           SKY/WX    TMP DP  RH WIND       PRES   REMARKS
LEXINGTON      CLOUDY    58  47  66 NE8       30.15R
COVINGTON      MOSUNNY   52  41  66 NE10      30.18R
FRANKFORT      CLOUDY    57  46  66 E5        30.15R
$$

KYZ054-064>069-076>088-106>120-291800-
SOUTHEAST KENTUCKY

CITY           SKY/WX    TMP DP  RH WIND       PRES   REMARKS
JACKSON        CLOUDY    59  49  69 VRB5      30.13F
LONDON         MOSUNNY   64  49  57 CALM      30.10F
SOMERSET       NOT AVBL
MIDDLESBORO    SUNNY     69  52  54 N3        30.08F
MONTICELLO     CLOUDY    66  54  65 VRB3      30.10F
$$





USA.gov is the U.S. government's official web portal to all federal, state and local government web resources and services.